Location: Emblem
(62.4273°N, 6.4710°E)
Time: 06:42:10
(UTC+02:00)

Transit 2A - Pass Details

Date: 08 March 2024
Orbit: 596 x 956 km, 66.7° (Epoch: 24 April)

Event Time Altitude Azimuth Distance (km) Brightness Sun altitude
Rises 00:42:58 0° 304° (NW) 2,945 9.5 -32.4°
Reaches altitude 10° 00:45:10 10° 302° (WNW) 2,072 8.6 -32.4°
Enters shadow 00:46:00 15° 300° (WNW) 1,755 8.1 -32.4°
